This is the latest recevied weather packets stored in our database for station/object OK4ZAW-16. If no packets are shown the sender has not sent any weather packets the latest 1 day(s).
| Time | Temp. | Humidity | Pressure | Rain* | Wind** | Luminosity | Snow |
|---|---|---|---|---|---|---|---|
| 1777967569 | 15° C | 73% | 1011.6 hPa | - | 0.89 m/s, 0° | 150 W/m² | - |
| 1777967152 | 15° C | 73% | 1011.7 hPa | - | 1.34 m/s, 0° | 150 W/m² | - |
| 1777966735 | 15.56° C | 76% | 1011.8 hPa | - | 0.89 m/s, 0° | 150 W/m² | - |
| 1777966317 | 15° C | 78% | 1011.7 hPa | - | 0.89 m/s, 0° | 150 W/m² | - |
| 1777965901 | 14.44° C | 77% | 1011.8 hPa | - | 0.89 m/s, 0° | 150 W/m² | - |
| 1777965483 | 14.44° C | 77% | 1011.8 hPa | - | 0.89 m/s, 0° | 150 W/m² | - |
| 1777965066 | 14.44° C | 78% | 1011.8 hPa | - | 0.89 m/s, 0° | 150 W/m² | - |
| 1777964649 | 14.44° C | 80% | 1011.9 hPa | - | 0.89 m/s, 0° | 150 W/m² | - |
| 1777964231 | 14.44° C | 79% | 1011.8 hPa | - | 0.89 m/s, 0° | 150 W/m² | - |
| 1777963814 | 14.44° C | 80% | 1011.8 hPa | - | 0.89 m/s, 0° | 150 W/m² | - |
| 1777963397 | 15° C | 77% | 1011.8 hPa | - | 0.89 m/s, 0° | 150 W/m² | - |
| 1777962980 | 15.56° C | 76% | 1011.6 hPa | - | 0.89 m/s, 0° | 150 W/m² | - |
| 1777962563 | 15° C | 82% | 1011.7 hPa | - | 0.89 m/s, 0° | 150 W/m² | - |
| 1777962145 | 14.44° C | 90% | 1011.7 hPa | - | 0.89 m/s, 0° | 150 W/m² | - |
| 1777961728 | 13.33° C | 92% | 1011.7 hPa | - | 1.34 m/s, 0° | 150 W/m² | - |
| 1777960895 | 12.78° C | 92% | 1011.8 hPa | - | 1.34 m/s, 0° | 150 W/m² | - |
| 1777960478 | 12.78° C | 93% | 1011.8 hPa | - | 0.89 m/s, 0° | 150 W/m² | - |
| 1777960061 | 12.78° C | 92% | 1011.8 hPa | - | 0.89 m/s, 0° | 150 W/m² | - |
| 1777959644 | 12.78° C | 88% | 1011.7 hPa | - | 1.34 m/s, 0° | 150 W/m² | - |
| 1777959227 | 12.78° C | 89% | 1011.8 hPa | - | 1.34 m/s, 0° | 150 W/m² | - |
| 1777958811 | 12.22° C | 89% | 1011.8 hPa | - | 0.89 m/s, 0° | 150 W/m² | - |
| 1777958394 | 12.22° C | 88% | 1011.9 hPa | - | 0.89 m/s, 0° | 150 W/m² | - |
| 1777957977 | 12.22° C | 89% | 1011.9 hPa | - | 0.89 m/s, 0° | 150 W/m² | - |
| 1777957561 | 11.67° C | 90% | 1012 hPa | - | 0.89 m/s, 0° | 150 W/m² | - |
| 1777957144 | 11.11° C | 91% | 1011.9 hPa | - | 1.34 m/s, 0° | 150 W/m² | - |
* Rain since midnight (hover to see other rain measurements)
** Current wind speed in m/s (hover to see current wind gust speed)